| time (UTC) | temp F | wind direction | speed MPH | gust MPH | rain 1hr in | rain 24hr in | rain mn in | humidity % | barometer mb |
| 20260507133740 | 68 | 0.0 | 0.0 | 0.00 | 0.00 | 0.00 | 42 | 729.2 | |
| 20260507132229 | 71 | 0.0 | 0.0 | 0.00 | 0.00 | 0.00 | 40 | 730.8 | |
| 20260507130717 | 71 | 0.0 | 0.0 | 0.00 | 0.00 | 0.00 | 38 | 730.8 | |
| 20260507125205 | 71 | 0.0 | 0.0 | 0.00 | 0.00 | 0.00 | 40 | 731.0 | |
| 20260507123653 | 72 | 0.0 | 0.0 | 0.00 | 0.00 | 0.00 | 41 | 731.6 | |
| 20260507122142 | 71 | 0.0 | 0.0 | 0.00 | 0.00 | 0.00 | 40 | 731.1 | |
| 20260507120630 | 72 | 0.0 | 0.0 | 0.00 | 0.00 | 0.00 | 39 | 731.4 | |
| 20260507115118 | 73 | 0.0 | 0.0 | 0.00 | 0.00 | 0.00 | 40 | 732.2 | |
| 20260507113606 | 73 | 0.0 | 0.0 | 0.00 | 0.00 | 0.00 | 40 | 732.1 | |
| 20260507112054 | 73 | 0.0 | 0.0 | 0.00 | 0.00 | 0.00 | 41 | 732.4 | |
| 20260507110543 | 72 | 0.0 | 0.0 | 0.00 | 0.00 | 0.00 | 42 | 731.6 | |
| 20260507105031 | 68 | 0.0 | 0.0 | 0.00 | 0.00 | 0.00 | 46 | 729.0 | |
| 20260507103519 | 68 | 0.0 | 0.0 | 0.00 | 0.00 | 0.00 | 47 | 728.8 | |
| 20260507102008 | 68 | 0.0 | 0.0 | 0.00 | 0.00 | 0.00 | 47 | 729.1 | |
| 20260507100456 | 68 | 0.0 | 0.0 | 0.00 | 0.00 | 0.00 | 46 | 728.9 | |
| 20260507094944 | 67 | 0.0 | 0.0 | 0.00 | 0.00 | 0.00 | 47 | 728.3 | |
| 20260507093432 | 66 | 0.0 | 0.0 | 0.00 | 0.00 | 0.00 | 49 | 727.8 | |
| 20260507091921 | 66 | 0.0 | 0.0 | 0.00 | 0.00 | 0.00 | 50 | 727.7 | |
| 20260507090409 | 65 | 0.0 | 0.0 | 0.00 | 0.00 | 0.00 | 49 | 727.1 | |
| 20260507084857 | 64 | 0.0 | 0.0 | 0.00 | 0.00 | 0.00 | 50 | 726.5 | |
| 20260507083345 | 64 | 0.0 | 0.0 | 0.00 | 0.00 | 0.00 | 51 | 726.1 | |
| 20260507081834 | 63 | 0.0 | 0.0 | 0.00 | 0.00 | 0.00 | 54 | 726.0 | |
| 20260507080322 | 63 | 0.0 | 0.0 | 0.00 | 0.00 | 0.00 | 56 | 725.6 | |
| 20260507074810 | 62 | 0.0 | 0.0 | 0.00 | 0.00 | 0.00 | 56 | 725.1 | |
| 20260507073258 | 61 | 0.0 | 0.0 | 0.00 | 0.00 | 0.00 | 60 | 724.7 | |
| 20260507071747 | 61 | 0.0 | 0.0 | 0.00 | 0.00 | 0.00 | 63 | 724.5 | |
| 20260507070235 | 60 | 0.0 | 0.0 | 0.00 | 0.00 | 0.00 | 65 | 723.9 | |
| 20260507064723 | 59 | 0.0 | 0.0 | 0.00 | 0.00 | 0.00 | 67 | 723.1 | |
| 20260507060148 | 57 | 0.0 | 0.0 | 0.00 | 0.00 | 0.00 | 69 | 722.2 | |
| 20260507054636 | 58 | 0.0 | 0.0 | 0.00 | 0.00 | 0.00 | 69 | 722.3 | |
| 20260507053124 | 58 | 0.0 | 0.0 | 0.00 | 0.00 | 0.00 | 70 | 722.7 | |
| 20260507051613 | 58 | 0.0 | 0.0 | 0.00 | 0.00 | 0.00 | 71 | 722.3 | |
| 20260507044549 | 57 | 0.0 | 0.0 | 0.00 | 0.00 | 0.00 | 74 | 721.8 | |
| 20260507043037 | 56 | 0.0 | 0.0 | 0.00 | 0.00 | 0.00 | 76 | 721.2 | |
| 20260507041526 | 55 | 0.0 | 0.0 | 0.00 | 0.00 | 0.00 | 76 | 720.6 | |
| 20260507040014 | 55 | 0.0 | 0.0 | 0.00 | 0.00 | 0.00 | 75 | 720.9 | |
| 20260507034502 | 56 | 0.0 | 0.0 | 0.00 | 0.00 | 0.00 | 74 | 721.3 | |
| 20260507032950 | 56 | 0.0 | 0.0 | 0.00 | 0.00 | 0.00 | 73 | 721.6 | |
| 20260507031439 | 57 | 0.0 | 0.0 | 0.00 | 0.00 | 0.00 | 72 | 722.0 | |
| 20260507025927 | 58 | 0.0 | 0.0 | 0.00 | 0.00 | 0.00 | 70 | 722.4 | |
| 20260507024417 | 59 | 0.0 | 0.0 | 0.00 | 0.00 | 0.00 | 69 | 722.9 | |
| 20260507022903 | 58 | 0.0 | 0.0 | 0.00 | 0.00 | 0.00 | 69 | 722.8 | |
| 20260507021352 | 59 | 0.0 | 0.0 | 0.00 | 0.00 | 0.00 | 68 | 723.0 | |
| 20260507015840 | 59 | 0.0 | 0.0 | 0.00 | 0.00 | 0.00 | 69 | 722.9 | |
| 20260507014328 | 58 | 0.0 | 0.0 | 0.00 | 0.00 | 0.00 | 69 | 722.8 | |
| 20260507012821 | 59 | 0.0 | 0.0 | 0.00 | 0.00 | 0.00 | 69 | 723.1 | |
| 20260507011304 | 59 | 0.0 | 0.0 | 0.00 | 0.00 | 0.00 | 69 | 723.3 | |
| 20260507005755 | 59 | 0.0 | 0.0 | 0.00 | 0.00 | 0.00 | 69 | 723.0 | |
| 20260507004243 | 59 | 0.0 | 0.0 | 0.00 | 0.00 | 0.00 | 69 | 723.1 | |
| 20260507002729 | 59 | 0.0 | 0.0 | 0.00 | 0.00 | 0.00 | 69 | 723.1 | |
| 20260507001218 | 59 | 0.0 | 0.0 | 0.00 | 0.00 | 0.00 | 69 | 723.1 | |
| 20260506235728 | 59 | 0.0 | 0.0 | 0.00 | 0.00 | 0.00 | 70 | 723.3 | |
| 20260506234154 | 59 | 0.0 | 0.0 | 0.00 | 0.00 | 0.00 | 70 | 723.4 | |
| 20260506232654 | 60 | 0.0 | 0.0 | 0.00 | 0.00 | 0.00 | 69 | 723.6 | |
| 20260506231131 | 60 | 0.0 | 0.0 | 0.00 | 0.00 | 0.00 | 69 | 723.5 | |
| 20260506225619 | 60 | 0.0 | 0.0 | 0.00 | 0.00 | 0.00 | 68 | 723.7 | |
| 20260506224107 | 60 | 0.0 | 0.0 | 0.00 | 0.00 | 0.00 | 69 | 723.9 | |
| 20260506222555 | 61 | 0.0 | 0.0 | 0.00 | 0.00 | 0.00 | 73 | 724.1 | |
| 20260506221044 | 61 | 0.0 | 0.0 | 0.00 | 0.00 | 0.00 | 73 | 724.2 | |
| 20260506215532 | 61 | 0.0 | 0.0 | 0.00 | 0.00 | 0.00 | 74 | 724.3 | |
| 20260506214020 | 62 | 0.0 | 0.0 | 0.00 | 0.00 | 0.00 | 76 | 724.8 | |
| 20260506212508 | 62 | 0.0 | 0.0 | 0.00 | 0.00 | 0.00 | 73 | 724.9 | |
| 20260506210958 | 63 | 0.0 | 0.0 | 0.00 | 0.00 | 0.00 | 73 | 725.8 | |
| 20260506205445 | 63 | 0.0 | 0.0 | 0.00 | 0.00 | 0.00 | 72 | 725.9 | |
| 20260506203933 | 64 | 0.0 | 0.0 | 0.00 | 0.00 | 0.00 | 69 | 726.1 | |
| 20260506202421 | 64 | 0.0 | 0.0 | 0.00 | 0.00 | 0.00 | 65 | 726.1 | |
| 20260506200910 | 65 | 0.0 | 0.0 | 0.00 | 0.00 | 0.00 | 59 | 726.8 | |
| 20260506195358 | 66 | 0.0 | 0.0 | 0.00 | 0.00 | 0.00 | 56 | 727.4 | |
| 20260506193846 | 67 | 0.0 | 0.0 | 0.00 | 0.00 | 0.00 | 53 | 728.2 | |
| 20260506192335 | 68 | 0.0 | 0.0 | 0.00 | 0.00 | 0.00 | 49 | 729.0 | |
| 20260506190823 | 70 | 0.0 | 0.0 | 0.00 | 0.00 | 0.00 | 46 | 729.9 | |
| 20260506183759 | 73 | 0.0 | 0.0 | 0.00 | 0.00 | 0.00 | 36 | 732.2 | |
| 20260506182247 | 74 | 0.0 | 0.0 | 0.00 | 0.00 | 0.00 | 37 | 732.6 | |
| 20260506180736 | 75 | 0.0 | 0.0 | 0.00 | 0.00 | 0.00 | 34 | 733.6 | |
| 20260506175224 | 76 | 0.0 | 0.0 | 0.00 | 0.00 | 0.00 | 34 | 734.0 | |
| 20260506173712 | 77 | 0.0 | 0.0 | 0.00 | 0.00 | 0.00 | 32 | 734.9 | |
| 20260506172201 | 80 | 0.0 | 0.0 | 0.00 | 0.00 | 0.00 | 29 | 736.7 | |
| 20260506170649 | 90 | 0.0 | 0.0 | 0.00 | 0.00 | 0.00 | 24 | 743.2 | |
| 20260506165137 | 79 | 0.0 | 0.0 | 0.00 | 0.00 | 0.00 | 32 | 736.2 | |
| 20260506163625 | 78 | 0.0 | 0.0 | 0.00 | 0.00 | 0.00 | 32 | 735.4 | |
| 20260506162114 | 80 | 0.0 | 0.0 | 0.00 | 0.00 | 0.00 | 32 | 736.7 | |
| 20260506160602 | 79 | 0.0 | 0.0 | 0.00 | 0.00 | 0.00 | 33 | 736.0 | |
| 20260506155050 | 79 | 0.0 | 0.0 | 0.00 | 0.00 | 0.00 | 33 | 735.9 | |
| 20260506153538 | 79 | 0.0 | 0.0 | 0.00 | 0.00 | 0.00 | 32 | 735.9 | |
| 20260506152026 | 80 | 0.0 | 0.0 | 0.00 | 0.00 | 0.00 | 32 | 736.4 | |
| 20260506150516 | 81 | 0.0 | 0.0 | 0.00 | 0.00 | 0.00 | 31 | 737.2 | |
| 20260506145003 | 82 | 0.0 | 0.0 | 0.00 | 0.00 | 0.00 | 31 | 737.9 | |
| 20260506143451 | 83 | 0.0 | 0.0 | 0.00 | 0.00 | 0.00 | 30 | 738.8 | |
| 20260506141939 | 88 | 0.0 | 0.0 | 0.00 | 0.00 | 0.00 | 27 | 741.9 | |
| 20260506140428 | 95 | 0.0 | 0.0 | 0.00 | 0.00 | 0.00 | 24 | 746.6 | |
| 20260506134916 | 96 | 0.0 | 0.0 | 0.00 | 0.00 | 0.00 | 25 | 746.7 |